Regional Weather Roundup
Issued by NWS

Home | Current Version | Previous Version | Graphics & Text | Print | Product List | Glossary On
Versions: 1 2 3 4 5 6 7 8 9 10 11 12 13 14 15 16 17 18 19 20 21 22 23 24 25 26 27 28 29 30 31 32 33 34 35 36 37 38 39 40 41 42 43 44 45 46 47 48 49 50
645
ASUS44 KJAN 242203
RWRMS

MISSISSIPPI HOURLY WEATHER ROUNDUP
NATIONAL WEATHER SERVICE JACKSON MS
400 PM CST SAT JAN 24 2015

NOTE: "FAIR: INDICATES FEW OR NO CLOUDS BELOW 12,000 FEET WITH NO
SIGNIFICANT WEATHER AND/OR OBSTRUCTIONS TO VISIBILITY.

MSZ001>002-007>008-010>013-018>021-025>028-034>036-242300-
NORTHWEST MISSISSIPPI

CITY           SKY/WX    TMP DP  RH WIND       PRES   REMARKS
CLARKSDALE     FAIR      55  36  47 S9        29.97S
CLEVELAND      FAIR      54  41  60 SW10      29.98S
GREENWOOD      SUNNY     53  34  48 SW12      30.00S
GREENVILLE     SUNNY     56  36  47 SW13      29.98F
GRENADA        FAIR      52  32  46 SW8       29.99S
OLIVE BRANCH   MOSUNNY   54  32  43 SW12      29.94S
OXFORD         FAIR      52  27  37 W7G16     29.98S
TUNICA         CLEAR     54  36  50 SW13      29.95F
$$

MSZ003>006-009-014>017-022>024-029>033-037>039-242300-
NORTHEAST MISSISSIPPI

CITY           SKY/WX    TMP DP  RH WIND       PRES   REMARKS
COLUMBUS AFB   SUNNY     52  31  44 W9        29.99S
CORINTH        FAIR      54  30  40 SW8G16    29.93S
GOLDN TRIANGLE SUNNY     54  32  43 SW6       29.99S
STARKVILLE     FAIR      52  32  46 W7        29.99F
TUPELO         SUNNY     53  28  38 SW12      29.97S
$$

MSZ040-058-242300-
CENTRAL MISSISSIPPI

CITY           SKY/WX    TMP DP  RH WIND       PRES   REMARKS
JACKSON INTL   MOSUNNY   54  30  40 SW10      30.02F
JACKSON HAWKNS SUNNY     54  30  40 SW9       30.02F
MERIDIAN KEY   SUNNY     52  30  43 SW6       30.02F
MERIDIAN NAS   SUNNY     53  29  39 W8        30.01F
RAYMOND        FAIR      54  50  87 MISG      30.03F
VICKSBURG      SUNNY     56  34  43 VRB6      30.03F
$$

MSZ059>079-242300-
SOUTH MISSISSIPPI

CITY           SKY/WX    TMP DP  RH WIND       PRES   REMARKS
BROOKHAVEN     FAIR      55  32  41 W6        30.05F
HATTIESBURG    SUNNY     56  30  37 NW3       30.06S
MCCOMB         SUNNY     56  29  35 W7        30.06S
NATCHEZ        SUNNY     55  36  47 W10       30.06F
PINE BELT      SUNNY     55  28  35 W6        30.06S
$$

MSZ080>082-242300-
COASTAL MISSISSIPPI

CITY           SKY/WX    TMP DP  RH WIND       PRES   REMARKS
BILOXI         SUNNY     58  33  39 NW6       30.06S
PASCAGOULA     SUNNY     58  32  37 NW7       30.05F
GULFPORT       SUNNY     57  32  38 NW9       30.06S
$$



USA.gov is the U.S. government's official web portal to all federal, state and local government web resources and services.